Aérodrome :
LOGIN :

S'inscrire | Disclaimer

   EN    FR    IT 

 










Légende :    VFR   VFR Marginal   IFR   IFR Intensif   IFR Très Intensif
Visi : 
Plafond : 
>= 8 km
>= 3000ft
5 à 8 km
1000 à 3000 ft
1500m à 5 km
500 à 1000 ft
800 à 1500m
200 à 500 ft
< 800m
< 200 ft
Symboles :   Orages  Brouillard  Fortes neiges  Fortes précipitations  Vent > 20 kt
SIGMETs :   Divers  Orages  Givrage  Turbulence  Onde Orograph.  Cendres Volcan.







- Altitude de l'aérodrome : 286 ft
- Code IATA : FFD


EGVA - RAF Fairford

DERNIER METAR :
  • 190756Z AUTO 06007KT 9999 CLR 12/07 A3037 RMK AO2 SLP288 T01160073 VISNO RWY27 $

METARs EXPIRÉS :
  • 190656Z AUTO 06005KT 9999 CLR 09/07 A3035 RMK AO2 SLP281 T00920066 VISNO RWY27 $
  • 190556Z AUTO 05005KT 9999 CLR 08/06 A3034 RMK AO2 SLP278 T00750056 10109 20075 52010 VISNO RWY27 $
  • 190456Z AUTO 00000KT 9999 CLR 08/06 A3033 RMK AO2 SLP274 T00780056 VISNO RWY27 $

Prévision TAF périmée.
Pas de NOTAMs connus pour ce terrain.



MET'MAP, la Météo Aéronautique d'un coup d'oeil ! - Copyright ORBIFLY Décembre 2007 - Disclaimer

ORBIFLY MET'MAP TEAM :

Programmation & Développement : Alexandra Zaïnal
Conception & Développement : Baudouin d'Aumeries
Co-Programmation & Développement : Marc-Olivier Méhu
Soutien technique & logistique : Manuel Goepfert

Contact : metmap@orbifly.com




SOURCES & CREDITS :

   NOAA